Weather History for KFOA - October, 2012

Change the Weather History Date:

Tuesday, October 9, 2012

  Actual Average (KEVV) Record (KEVV)
Temperature  
Mean Temperature 51 °F 60 °F  
Max Temperature 65 °F 72 °F 89 °F (1939)
Min Temperature 37 °F 47 °F 29 °F (2000)
Degree Days  
Heating Degree Days 14 7  
Month to date heating degree days 51  
Since 1 July heating degree days 98  
Cooling Degree Days 0 1  
Month to date cooling degree days 16  
Year to date cooling degree days 1382  
Growing Degree Days 1 (Base 50)    
Moisture  
Dew Point 42 °F    
Average Humidity 71    
Maximum Humidity 100    
Minimum Humidity 43    
Precipitation  
Precipitation 0.00 in 0.09 in 2.51 in (1999)
Month to date precipitation 0.93  
Year to date precipitation 34.90  
Snow  
Snow 0.00 in 0.00 in 0.00 in (2002)
Month to date snowfall 0.0  
Since 1 July snowfall 0.0  
Since 1 September snowfall 0.0  
Snow Depth -    
Sea Level Pressure  
Sea Level Pressure 30.05 in    
Wind  
Wind Speed 5 mph (SSW)    
Max Wind Speed 17 mph    
Max Gust Speed 21 mph    
Visibility 10 miles    
Events      
T = Trace of Precipitation, MM = Missing Value Source: NWS Daily Summary

Daily Weather History Graph

Daily Weather History Graph

Search for Another Location

Airport or City:

Trip Planner

Search our weather history database for the weather conditions in past years. The results will help you decide how hot, cold, wet, or windy it might be!

Date:

Astronomy

Oct. 09, 2012 Rise Set
Actual Time 6:57 AM CDT 6:23 PM CDT
Civil Twilight 6:31 AM CDT 6:50 PM CDT
Nautical Twilight 6:00 AM CDT 7:20 PM CDT
Astronomical Twilight 5:29 AM CDT 7:51 PM CDT
Moon 12:37 AM CDT (10/9) 2:47 PM CDT (10/9)
Length of Visible Light 12h 19m
Length of Day
11h 25m
Last Quarter, 36% of the Moon is Illuminated
Oct 9
Last Quarter
Oct 15
New
Oct 21
First Quarter
Oct 29
Full
Nov 6
Last Quarter

Hourly Weather History & Observations

Time (CDT) Temp. Windchill Dew Point Humidity Pressure Visibility Wind Dir Wind Speed Gust Speed Precip Events Conditions
12:14 AM 42.8 °F - 37.4 °F 81% 30.12 in 10.0 mi Calm Calm - N/A   Clear
12:34 AM 42.8 °F - 37.4 °F 81% 30.11 in 10.0 mi Calm Calm - N/A   Clear
12:54 AM 41.0 °F - 37.4 °F 87% 30.11 in 10.0 mi Calm Calm - N/A   Clear
1:14 AM 42.8 °F - 37.4 °F 81% 30.12 in 10.0 mi Calm Calm - N/A   Clear
1:15 AM 41.5 °F - 37.8 °F 86% 30.12 in 10.0 mi Calm Calm - N/A   Clear
1:54 AM 41.0 °F - 37.4 °F 87% 30.12 in 10.0 mi Calm Calm - N/A   Clear
2:34 AM 39.2 °F 37.0 °F 37.4 °F 93% 30.11 in 10.0 mi South 3.5 mph - N/A   Clear
2:54 AM 39.2 °F - 37.4 °F 93% 30.11 in 10.0 mi Calm Calm - N/A   Clear
3:14 AM 39.2 °F - 37.4 °F 93% 30.11 in 10.0 mi Calm Calm - N/A   Clear
3:35 AM 40.3 °F - 37.8 °F 91% 30.11 in 10.0 mi Calm Calm - N/A   Clear
3:55 AM 39.0 °F - 37.6 °F 95% 30.11 in 10.0 mi Calm Calm - N/A   Clear
4:34 AM 39.2 °F 37.0 °F 37.4 °F 93% 30.11 in 10.0 mi SSE 3.5 mph - N/A   Clear
4:55 AM 38.7 °F 36.3 °F 37.4 °F 95% 30.11 in 10.0 mi SSE 3.5 mph - N/A   Clear
4:57 AM 37.4 °F 34.9 °F 37.4 °F 100% 30.11 in 10.0 mi SSE 3.5 mph - N/A   Clear
5:14 AM 39.2 °F 37.0 °F 37.4 °F 93% 30.11 in 10.0 mi South 3.5 mph - N/A   Clear
5:34 AM 39.2 °F 35.9 °F 37.4 °F 93% 30.10 in 10.0 mi SSE 4.6 mph - N/A   Clear
5:54 AM 39.2 °F 37.0 °F 37.4 °F 93% 30.10 in 10.0 mi South 3.5 mph - N/A   Clear
6:14 AM 39.2 °F 35.0 °F 37.4 °F 93% 30.11 in 10.0 mi South 5.8 mph - N/A   Clear
6:35 AM 38.3 °F 34.8 °F 36.9 °F 95% 30.11 in 10.0 mi SSW 4.6 mph - N/A   Clear
6:55 AM 37.8 °F 33.3 °F 36.7 °F 96% 30.12 in 10.0 mi South 5.8 mph - N/A   Clear
7:15 AM 39.2 °F 35.9 °F 37.8 °F 95% 30.12 in 10.0 mi South 4.6 mph - N/A   Clear
7:35 AM 40.6 °F 38.6 °F 38.8 °F 93% 30.12 in 10.0 mi South 3.5 mph - N/A   Clear
7:55 AM 43.2 °F 39.0 °F 40.6 °F 91% 30.12 in 10.0 mi South 6.9 mph - N/A   Clear
8:15 AM 45.9 °F 42.3 °F 42.4 °F 88% 30.11 in 10.0 mi SSW 6.9 mph - N/A   Clear
8:35 AM 48.2 °F - 42.6 °F 81% 30.12 in 10.0 mi SSW 6.9 mph - N/A   Clear
8:55 AM 51.1 °F - 43.7 °F 76% 30.12 in 10.0 mi SW 5.8 mph - N/A   Clear
9:15 AM 53.2 °F - 43.7 °F 70% 30.12 in 10.0 mi SSW 6.9 mph - N/A   Clear
9:35 AM 55.0 °F - 44.1 °F 67% 30.12 in 10.0 mi SSW 10.4 mph - N/A   Clear
9:55 AM 56.3 °F - 44.1 °F 64% 30.11 in 10.0 mi SSW 9.2 mph - N/A   Clear
10:15 AM 57.4 °F - 43.5 °F 60% 30.11 in 10.0 mi SW 10.4 mph - N/A   Clear
10:35 AM 58.3 °F - 43.9 °F 59% 30.11 in 10.0 mi SW 12.7 mph - N/A   Clear
10:55 AM 59.0 °F - 43.9 °F 57% 30.10 in 10.0 mi SSW 12.7 mph 17.3 mph N/A   Clear
11:15 AM 60.1 °F - 44.1 °F 55% 30.09 in 10.0 mi South 13.8 mph 19.6 mph N/A   Clear
11:35 AM 61.3 °F - 43.5 °F 52% 30.08 in 10.0 mi SSW 17.3 mph 20.7 mph N/A   Clear
11:55 AM 61.7 °F - 43.7 °F 52% 30.07 in 10.0 mi SSW 13.8 mph 17.3 mph N/A   Clear
12:15 PM 63.1 °F - 44.2 °F 50% 30.06 in 10.0 mi South 11.5 mph 19.6 mph N/A   Clear
12:35 PM 63.5 °F - 44.2 °F 49% 30.05 in 10.0 mi SSW 13.8 mph 18.4 mph N/A   Clear
12:55 PM 63.5 °F - 43.5 °F 48% 30.04 in 10.0 mi SSW 13.8 mph 17.3 mph N/A   Clear
1:15 PM 64.2 °F - 44.1 °F 48% 30.02 in 10.0 mi South 12.7 mph 17.3 mph N/A   Clear
1:35 PM 64.0 °F - 42.3 °F 45% 30.02 in 10.0 mi SSW 13.8 mph 19.6 mph N/A   Clear
1:55 PM 64.4 °F - 42.4 °F 45% 30.02 in 10.0 mi SSW 13.8 mph 19.6 mph N/A   Clear
2:15 PM 65.3 °F - 43.0 °F 44% 30.01 in 10.0 mi SW 13.8 mph 18.4 mph N/A   Clear
2:35 PM 64.8 °F - 43.0 °F 45% 30.00 in 10.0 mi SSW 15.0 mph - N/A   Clear
2:55 PM 65.3 °F - 43.5 °F 45% 29.99 in 10.0 mi SW 13.8 mph 19.6 mph N/A   Clear
3:15 PM 65.5 °F - 43.3 °F 45% 29.99 in 10.0 mi South 12.7 mph 16.1 mph N/A   Clear
3:35 PM 65.3 °F - 42.4 °F 43% 29.98 in 10.0 mi SSW 13.8 mph 19.6 mph N/A   Clear
3:55 PM 65.1 °F - 43.0 °F 45% 29.97 in 10.0 mi South 13.8 mph 20.7 mph N/A   Clear
4:15 PM 65.3 °F - 43.5 °F 45% 29.97 in 10.0 mi South 11.5 mph - N/A   Clear
4:35 PM 64.8 °F - 43.3 °F 46% 29.97 in 10.0 mi SSW 12.7 mph 19.6 mph N/A   Clear
4:55 PM 64.2 °F - 43.0 °F 46% 29.97 in 10.0 mi SSW 12.7 mph - N/A   Clear
5:15 PM 63.5 °F - 43.3 °F 48% 29.97 in 10.0 mi SSW 9.2 mph - N/A   Clear
5:35 PM 63.5 °F - 43.9 °F 49% 29.96 in 10.0 mi South 12.7 mph - N/A   Clear
5:55 PM 61.7 °F - 43.5 °F 51% 29.96 in 10.0 mi SSW 10.4 mph - N/A   Clear
6:15 PM 59.7 °F - 44.1 °F 56% 29.96 in 10.0 mi SSW 6.9 mph - N/A   Clear
6:35 PM 56.3 °F - 45.0 °F 66% 29.96 in 10.0 mi SW 5.8 mph - N/A   Clear
6:55 PM 54.1 °F - 44.1 °F 69% 29.96 in 10.0 mi SSW 6.9 mph - N/A   Clear
7:15 PM 53.1 °F - 44.2 °F 72% 29.97 in 10.0 mi SSW 6.9 mph - N/A   Clear
7:35 PM 52.5 °F - 45.7 °F 78% 29.97 in 10.0 mi SSW 5.8 mph - N/A   Clear
7:55 PM 51.1 °F - 45.3 °F 81% 29.98 in 10.0 mi SSW 5.8 mph - N/A   Clear
8:15 PM 51.6 °F - 44.8 °F 77% 29.98 in 10.0 mi SW 5.8 mph - N/A   Clear
8:35 PM 50.9 °F - 44.6 °F 79% 29.98 in 10.0 mi SW 6.9 mph - N/A   Clear
8:55 PM 51.8 °F - 45.1 °F 78% 29.97 in 10.0 mi SSW 5.8 mph - N/A   Clear
9:35 PM 53.2 °F - 45.7 °F 76% 29.96 in 10.0 mi South 9.2 mph - N/A   Clear
9:55 PM 53.4 °F - 45.3 °F 74% 29.96 in 10.0 mi South 8.1 mph - N/A   Clear
10:15 PM 53.8 °F - 45.5 °F 74% 29.97 in 10.0 mi SSW 6.9 mph - N/A   Scattered Clouds
10:35 PM 53.8 °F - 45.7 °F 74% 29.96 in 10.0 mi South 5.8 mph - N/A   Scattered Clouds
10:55 PM 54.5 °F - 46.4 °F 74% 29.97 in 10.0 mi SW 5.8 mph - N/A   Mostly Cloudy
11:15 PM 54.7 °F - 46.4 °F 74% 29.97 in 10.0 mi SW 5.8 mph - N/A   Overcast
11:35 PM 55.2 °F - 46.4 °F 72% 29.96 in 10.0 mi SSW 8.1 mph - N/A   Overcast
11:55 PM 55.4 °F - 46.4 °F 72% 29.96 in 10.0 mi SW 6.9 mph - N/A   Overcast